Portada
METAR-TAF:

METAR-TAF

Aeroports :

Proserpine, Austràlia

latitud: 20-29-42S, longitud: 148-33-06E, altitud: 25 m

Observació

L'informe es va fer fa 1 hora i 19 minuts, a les 15:00 UTC
Vent 6 kt del Sud
Temperatura 22°C
Humitat 88%
Pressió 1014 hPa
Visibilitat 10 km o més
Núvols disperses a una alçada de 2100 ft
Núvols disperses a una alçada de 3000 ft

METAR: YBPN 201500Z AUTO 18006KT 9999 // SCT021 SCT030 22/20 Q1014

Hora: 02:19 (16:19 UTC)


TAF: manca

Observacions i pronòstics meteorològics de més de 4000 aeroports (METAR i TAF).

Les estacions disponibles són els punts grocs i vermells al mapa.

Posi el ratolí al punt desitjat per veure el nom de l'estació.

Feu clic per veure les observacions i els pronòstics meteorològics.

Per canviar el mapa: feu clic els botons verds amb una creu de color negre per apropar; al botó verd amb un guió per allunyar la imatge; o en les fletxes verdes per a mapes adjacents.


METAR-TAF: